(40) Harmonia
ephemeris date magn radius delta ra dec elong phase
Today21 Nov 202411.22.173 AU2.264 AU20h57m-20°59'72.1°25.6°
Opposition2 Jan 20269.02.277 AU1.294 AU06h51m+23°54'179.0°0.4°
(40) Harmonia - 2024-11-21
astro.vanbuitenen.nl


 
-1 year
-1 month
-1 day
Now
+1 day
+1 month
+1 year

The interactive orbit chart above shows the body's path through the solar system and its position at the given date. Green and blue lines are shown perpendicular to the ecliptic plane: Green if the path is above the ecliptic plane, blue if it is below. (Left-click and drag to rotate the view; Right-click and drag to move the view; Use scroll wheel to zoom in our out.)

The orbital elements of Harmonia are:

            e (Eccentricity)                : 0.0460834
            a (Semimajor axis)              : 2.2671011
            i (Inclination)                 : 4.25589
            Ω (Longitude of ascending node) : 94.15642
            ω (Argument of perihelion)      : 269.36041
            M (Mean anomaly)                : 325.28827
            Epoch                           : 2024 Oct 17

            L (Longitude of perihelion)     : 183.51506
            B (Latitude of perihelion)      : -4.25562
            P (Orbital period in years)     : 3.41            
        

The light curve chart below shows the estimated development of the minor planet's magnitude.


The all-sky chart below shows the path of the minor planet over the same period as the light curve. The current position is marked yellow.





The following chart shows the path of the minor planet in the next few days. The field of view is optimized for (~10x50) binoculars and finderscopes. A more printer-friendly version of the same chart can be found below.




Ephemerides:
Date       Time       RA (2000)    DEC (2000)    delta   radius  elong  phase   PA    magn
2024-11-21 00:00 UT   20 57 24.5   -20 59 33     2.264    2.173   72.1   25.6    75   11.2 
2024-11-21 12:59 UT   20 58 18.9   -20 55 36     2.270    2.173   71.7   25.6    75   11.2 
2024-11-22 00:00 UT   20 59 05.2   -20 52 13     2.275    2.173   71.5   25.5    75   11.2 
2024-11-23 00:00 UT   21 00 46.4   -20 44 47     2.286    2.173   70.9   25.4    75   11.2 
2024-11-24 00:00 UT   21 02 28.0   -20 37 16     2.297    2.172   70.3   25.3    75   11.2 
2024-11-25 00:00 UT   21 04 10.2   -20 29 39     2.308    2.172   69.7   25.2    75   11.2 
2024-11-26 00:00 UT   21 05 52.7   -20 21 57     2.319    2.172   69.1   25.1    75   11.2 
2024-11-27 00:00 UT   21 07 35.7   -20 14 09     2.330    2.172   68.5   25.0    74   11.2 
2024-11-28 00:00 UT   21 09 19.1   -20 06 16     2.340    2.171   67.9   24.9    74   11.2 
2024-11-29 00:00 UT   21 11 03.0   -19 58 17     2.351    2.171   67.3   24.8    74   11.2 
2024-11-30 00:00 UT   21 12 47.2   -19 50 13     2.362    2.171   66.8   24.7    74   11.2 
2024-12-01 00:00 UT   21 14 31.8   -19 42 03     2.373    2.171   66.2   24.6    74   11.2 
2024-12-02 00:00 UT   21 16 16.8   -19 33 48     2.383    2.171   65.6   24.4    74   11.3 
2024-12-03 00:00 UT   21 18 02.2   -19 25 28     2.394    2.170   65.0   24.3    74   11.3 
2024-12-04 00:00 UT   21 19 47.9   -19 17 02     2.405    2.170   64.4   24.2    74   11.3 
2024-12-05 00:00 UT   21 21 34.0   -19 08 31     2.415    2.170   63.9   24.1    74   11.3 
2024-12-06 00:00 UT   21 23 20.4   -18 59 55     2.426    2.170   63.3   23.9    74   11.3 
2024-12-07 00:00 UT   21 25 07.1   -18 51 13     2.436    2.170   62.7   23.8    74   11.3 
2024-12-08 00:00 UT   21 26 54.1   -18 42 27     2.447    2.169   62.2   23.7    74   11.3 
2024-12-09 00:00 UT   21 28 41.4   -18 33 35     2.457    2.169   61.6   23.5    74   11.3 
2024-12-10 00:00 UT   21 30 29.0   -18 24 38     2.467    2.169   61.0   23.4    73   11.3 


    Terminology:
            
    delta:  distance between minor planet and earth in AU
    radius: distance between minor planet and sun in AU
    magn:   magnitude (brightness) estimate    
    ra:     right ascension in hours (24h = 360deg)
    dec:    declination in degrees
    elong:  elongation in degrees (angle sun-earth-minor planet)    
    phase:  phase angle in degrees (angle sun-minor planet-earth)        
    AU:     Astronomical Unit (mean distance between earth and sun: 149597870.7 km
    

Orbital elements provided by the MPC (Minor Planet Center).
Calculations by a modified version of AAPlus, a C# implementation of the AA+ project by PJ Naughter from the algorithms presented in the book "Astronomical Algorithms" by Jean Meeus.
NGC2000 dso catalog and star labels from VizieR as provided by the Strasbourg astronomical Data Center.
Tycho2 catalog from the ESO archive.